[[{"header":{"parameterUnit":"m.s-1","parameterCategory":1,"la1":30.2991,"la2":30.254,"lo1":-89.0895,"lo2":-89.0444,"dy":0.0017,"dx":0.0017,"nx":28,"ny":28,"refTime":"2025-09-15T03:00:00:Z","depth":0,"parameterNumber":2,"parameterNumberName":"U-component_of_WINDS"},"data":[0,0,0,0,0,0,0,0,0,0,0,0,0,0,0,0,0,0,0,0,0,0,0,0,0,0,0,0,0,0,0,0,0,0,0,0,0,0,0,0,0,0,0,0,0,0,0,0,0,0,0,0,0,0,0,0,0,0,0.6883,0.6884,0,0.6988,0.6989,0.699,0.7043,0.7043,0.7043,0.7043,0.7151,0.7154,0.7157,0,0,0,0,0,0,0,0,0,0,0,0,0,0.6727,0.673,0.6883,0.6884,0.6885,0.6987,0.6989,0.699,0.7043,0.7043,0.7043,0.7043,0.715,0.7154,0.7157,0,0,0,0,0,0,0,0,0,0,0,0,0,0.681,0.6731,0.6882,0.6924,0.6929,0.6987,0.6989,0.6991,0.7043,0.7043,0.7043,0.7044,0.7149,0.7153,0.7158,0.7183,0,0,0.7171,0.7173,0,0,0,0,0,0,0,0,0.6805,0.6815,0.6917,0.6921,0.6927,0.7002,0.6974,0.7055,0.7043,0.7,0.7043,0.7044,0.7102,0.711,0.713,0.7188,0.7192,0.7171,0.7174,0.7175,0.7177,0,0,0,0,0,0,0,0.6799,0.6811,0.6924,0.6918,0.6924,0.6937,0.6949,0.6989,0.7049,0.7004,0.7008,0.7019,0.7105,0.7125,0.7132,0.7194,0.7171,0.7175,0.7177,0.7179,0.7276,0.7276,0,0,0,0,0,0,0.6787,0.6806,0.6921,0.6927,0.6865,0.694,0.6953,0.6978,0.7049,0.706,0.7019,0.7022,0.7118,0.7127,0.7136,0.7169,0.7175,0.7179,0.7182,0.7276,0.7276,0.7276,0,0,0,0,0,0,0.6783,0.6797,0.6917,0.6868,0.6884,0.6942,0.697,0.698,0.7001,0.7061,0.7072,0.703,0.7118,0.713,0.717,0.7174,0.7181,0.7185,0.7276,0.7276,0.7276,0.7235,0,0,0,0,0,0,0.6779,0.6795,0.6806,0.6868,0.6886,0.6949,0.697,0.6982,0.7008,0.7012,0.7073,0.7083,0.7119,0.7164,0.7174,0.718,0.7189,0.7276,0.7276,0.7276,0.7237,0.7234,0.7232,0,0,0,0,0,0.6773,0.6791,0.6806,0.6819,0.6901,0.6949,0.696,0.7001,0.7008,0.7019,0.7057,0.7082,0.7171,0.7167,0.718,0.7186,0.7276,0.7276,0.7276,0.7238,0.7234,0.7232,0,0,0,0,0,0,0.6728,0.68,0.6817,0.6856,0.6896,0.6958,0.6973,0.6996,0.7036,0.7038,0.7087,0.71,0.7135,0.7165,0.7159,0.7213,0.7226,0.7228,0.7193,0.719,0.7187,0.718,0.7192,0,0,0,0,0,0.6723,0.6756,0.6817,0.6845,0.6864,0.6914,0.6937,0.6965,0.7009,0.7026,0.7067,0.7108,0.7146,0.717,0.7207,0.7241,0.7254,0.7251,0.7249,0.7246,0.7248,0.7266,0.7265,0.7276,0.7276,0.7276,0,0,0.6712,0.6755,0.6773,0.6837,0.6871,0.6904,0.6929,0.6963,0.6987,0.7031,0.7071,0.7102,0.7151,0.7187,0.7205,0.7213,0.7248,0.7246,0.7244,0.7247,0.7266,0.7265,0.7264,0.7276,0.7276,0.7276,0,0,0.6709,0.6745,0.6772,0.6805,0.6857,0.689,0.6896,0.6954,0.6976,0.7017,0.705,0.7079,0.7143,0.7176,0.7202,0.7208,0.7232,0.7219,0.7206,0.7223,0.7222,0.7222,0.7223,0.7223,0.722,0.722,0.722,0,0.669,0.6741,0.6783,0.6815,0.6841,0.6881,0.6907,0.6938,0.6999,0.7015,0.7023,0.7103,0.7139,0.7182,0.7183,0.7203,0.721,0.7213,0.7219,0.7219,0.7219,0.722,0.7221,0.7218,0.7219,0.7219,0.7219,0,0.6713,0.6748,0.6763,0.682,0.6848,0.6877,0.6922,0.6945,0.697,0.7002,0.7041,0.7086,0.7132,0.7144,0.7169,0.7191,0.7194,0.7209,0.7223,0.7215,0.7217,0.7218,0.7216,0.7216,0.7217,0.7217,0,0,0.6687,0.6765,0.677,0.6795,0.6853,0.6881,0.691,0.6955,0.6973,0.7013,0.7039,0.7091,0.7105,0.7133,0.7162,0.7177,0.7177,0.719,0.7192,0.7185,0.7201,0.7189,0.7189,0.7192,0.7193,0.7193,0.7197,0,0.6692,0.6748,0.6785,0.6826,0.6858,0.6895,0.692,0.6958,0.6988,0.7019,0.7052,0.7087,0.7104,0.7121,0.7137,0.7173,0.718,0.7174,0.7216,0.7217,0.7202,0.719,0.7178,0.7179,0.7198,0.7198,0.7198,0,0.6706,0.6744,0.6787,0.684,0.6854,0.6877,0.692,0.6949,0.6992,0.7012,0.7042,0.7071,0.7103,0.7113,0.7157,0.7151,0.717,0.719,0.7191,0.7197,0.7207,0.7195,0.7181,0.7181,0.72,0.72,0.72,0,0.6682,0.6743,0.6777,0.6797,0.686,0.6874,0.6901,0.6944,0.6968,0.7005,0.702,0.7061,0.7083,0.7113,0.7151,0.7155,0.719,0.7204,0.7208,0.7206,0.7214,0.7213,0.7202,0.7227,0.7227,0.7227,0.7227,0,0.6683,0.6708,0.6766,0.6787,0.6815,0.6857,0.6884,0.6913,0.6951,0.6977,0.7011,0.7035,0.7084,0.7113,0.7143,0.7174,0.7184,0.7201,0.7208,0.7198,0.7195,0.7211,0.7212,0.7227,0.7227,0.7227,0.7227,0,0.6662,0.6701,0.674,0.6795,0.6809,0.6827,0.6874,0.6895,0.6926,0.6958,0.6968,0.7017,0.7053,0.7093,0.7143,0.7163,0.7191,0.7203,0.7177,0.7181,0.7182,0.7181,0.7181,0.7182,0.7205,0.7205,0.7205,0,0.666,0.668,0.6736,0.6756,0.6781,0.6813,0.6837,0.6878,0.6901,0.695,0.6964,0.7002,0.7035,0.7091,0.713,0.7168,0.718,0.7177,0.7186,0.7173,0.7179,0.7177,0.7178,0.7175,0.7174,0.7174,0.7174,0,0.6653,0.6671,0.6704,0.6743,0.677,0.6803,0.6837,0.6851,0.6899,0.6923,0.696,0.6985,0.7035,0.7072,0.7114,0.714,0.7164,0.717,0.7173,0.7162,0.7145,0.7153,0.7169,0.717,0.7171,0.7171,0.7171,0.7171,0.6641,0.6659,0.6701,0.6736,0.6766,0.6796,0.6818,0.685,0.6882,0.6925,0.6947,0.6983,0.7023,0.7081,0.7107,0.7135,0.7143,0.7147,0.7148,0.7148,0.7144,0.7141,0.7143,0.7143,0.7143,0.7143,0.7143,0,0.6635,0.6663,0.6695,0.6741,0.6767,0.6787,0.6825,0.6846,0.6877,0.6912,0.6943,0.6983,0.7019,0.7059,0.7097,0.7111,0.7123,0.712,0.7119,0.7124,0.7136,0.7129,0.7109,0.7109,0.7109,0.7109,0.7109,0.7109,0.6635,0.6667,0.6689,0.6735,0.6763,0.6798,0.6817,0.6845,0.6873,0.6917,0.6946,0.6972,0.7009,0.7049,0.7081,0.7092,0.7104,0.7097,0.7111,0.7121,0.7124,0.7127,0.7121,0.7099,0.7099,0.7098,0.7097,0.7097]},{"header":{"parameterUnit":"m.s-1","parameterCategory":1,"la1":30.2991,"la2":30.254,"lo1":-89.0895,"lo2":-89.0444,"dy":0.0017,"dx":0.0017,"nx":28,"ny":28,"refTime":"2025-09-15T03:00:00:Z","depth":0,"parameterNumber":3,"parameterNumberName":"V-component_of_WINDS"},"data":[0,0,0,0,0,0,0,0,0,0,0,0,0,0,0,0,0,0,0,0,0,0,0,0,0,0,0,0,0,0,0,0,0,0,0,0,0,0,0,0,0,0,0,0,0,0,0,0,0,0,0,0,0,0,0,0,0,0,3.7669,3.7669,0,3.7648,3.7648,3.7648,3.7654,3.7655,3.7655,3.7655,3.7629,3.7628,3.7627,0,0,0,0,0,0,0,0,0,0,0,0,0,3.7711,3.771,3.7669,3.7669,3.7669,3.7648,3.7648,3.7648,3.7654,3.7655,3.7655,3.7656,3.763,3.7628,3.7627,0,0,0,0,0,0,0,0,0,0,0,0,0,3.7692,3.771,3.7669,3.767,3.767,3.7648,3.7648,3.7647,3.7654,3.7655,3.7655,3.7656,3.763,3.7628,3.7627,3.7603,0,0,3.7622,3.7621,0,0,0,0,0,0,0,0,3.7693,3.769,3.767,3.767,3.7669,3.7655,3.7653,3.7632,3.7654,3.766,3.7655,3.7656,3.7637,3.7635,3.7629,3.7601,3.76,3.7622,3.762,3.762,3.7619,0,0,0,0,0,0,0,3.7694,3.7691,3.7661,3.767,3.7669,3.7669,3.7667,3.7649,3.7644,3.7659,3.766,3.7657,3.7637,3.7631,3.7628,3.76,3.7622,3.762,3.7619,3.7618,3.7549,3.7549,0,0,0,0,0,0,3.7696,3.7692,3.7662,3.766,3.7683,3.7668,3.7666,3.7659,3.7645,3.7643,3.7657,3.7658,3.7633,3.763,3.7628,3.7597,3.762,3.7618,3.7617,3.755,3.7549,3.7548,0,0,0,0,0,0,3.7697,3.7694,3.7662,3.7676,3.7672,3.7667,3.7658,3.7658,3.7652,3.7643,3.7642,3.7651,3.7634,3.763,3.7609,3.7596,3.7617,3.7616,3.7551,3.755,3.7549,3.7536,0,0,0,0,0,0,3.7698,3.7694,3.7686,3.7676,3.7672,3.7645,3.7658,3.7657,3.7649,3.765,3.7638,3.7636,3.7634,3.7611,3.7607,3.7594,3.7615,3.7552,3.7551,3.7549,3.7538,3.7535,3.7532,0,0,0,0,0,3.77,3.7682,3.7685,3.7681,3.7662,3.7645,3.7642,3.7641,3.7648,3.7639,3.7633,3.7637,3.7599,3.7609,3.7604,3.7591,3.7553,3.7551,3.7549,3.7539,3.7535,3.7532,0,0,0,0,0,0,3.7689,3.7681,3.7684,3.7663,3.7655,3.7646,3.7634,3.7637,3.7625,3.7626,3.7624,3.7621,3.7599,3.7593,3.7605,3.7566,3.7577,3.7574,3.757,3.7567,3.7564,3.7565,3.7613,0,0,0,0,0,3.7685,3.7673,3.7666,3.7648,3.7644,3.764,3.7632,3.7632,3.7623,3.7619,3.7611,3.7601,3.7586,3.7576,3.7563,3.7537,3.7533,3.7526,3.7523,3.7521,3.7517,3.7502,3.7497,3.7542,3.7542,3.7542,0,0,3.7675,3.7669,3.7661,3.7646,3.7639,3.7625,3.7637,3.7622,3.7611,3.7616,3.7595,3.759,3.7577,3.7554,3.7543,3.7548,3.7504,3.7518,3.7517,3.7515,3.7499,3.7495,3.7491,3.7541,3.7541,3.7542,0,0,3.7649,3.7644,3.7628,3.7622,3.7612,3.7609,3.7605,3.7596,3.7592,3.7572,3.7575,3.7561,3.7537,3.7528,3.752,3.749,3.7492,3.7486,3.747,3.7455,3.7451,3.7448,3.7435,3.7431,3.7483,3.7483,3.7483,0,3.7637,3.7618,3.7619,3.7604,3.7596,3.7602,3.7584,3.7577,3.7563,3.7557,3.7563,3.7532,3.7524,3.7497,3.749,3.7484,3.7478,3.7486,3.7452,3.7449,3.7446,3.7434,3.7429,3.7482,3.7482,3.7482,3.7483,0,3.7603,3.7589,3.7578,3.7564,3.7556,3.7539,3.7537,3.7527,3.7528,3.7524,3.7502,3.7494,3.7477,3.7471,3.7472,3.7444,3.7447,3.7453,3.7464,3.7441,3.7429,3.7425,3.7481,3.7481,3.7482,3.7482,0,0,3.7569,3.7557,3.7552,3.7546,3.7535,3.7524,3.7508,3.7493,3.7484,3.7474,3.7458,3.7438,3.7443,3.7434,3.7433,3.742,3.7394,3.7427,3.7426,3.7419,3.7361,3.7355,3.7349,3.7396,3.7395,3.7395,3.7361,0,3.754,3.7513,3.7513,3.7487,3.7473,3.7478,3.7463,3.7454,3.745,3.7437,3.7432,3.7416,3.7425,3.7419,3.7407,3.74,3.7382,3.7403,3.7379,3.7378,3.738,3.7344,3.7338,3.7306,3.7357,3.7356,3.7355,0,3.7504,3.7493,3.7465,3.7456,3.745,3.7437,3.7423,3.7411,3.74,3.7398,3.7388,3.7389,3.737,3.7383,3.7356,3.737,3.736,3.7355,3.7354,3.735,3.7364,3.7336,3.7296,3.729,3.7349,3.7349,3.735,0,3.7479,3.7458,3.7438,3.7433,3.7422,3.7412,3.7407,3.7397,3.7388,3.7375,3.7369,3.7354,3.7345,3.7333,3.7329,3.7339,3.7301,3.7314,3.7296,3.7296,3.7286,3.7286,3.7241,3.7284,3.7284,3.7284,3.7284,0,3.7446,3.7428,3.7427,3.7414,3.7394,3.7395,3.7374,3.7369,3.736,3.7346,3.7349,3.7335,3.7332,3.7317,3.7314,3.729,3.7287,3.7282,3.7281,3.7281,3.7281,3.7273,3.7274,3.7283,3.7283,3.7283,3.7283,0,3.7413,3.7412,3.7391,3.7383,3.738,3.7365,3.7357,3.7344,3.7341,3.7323,3.7318,3.7312,3.7294,3.729,3.7268,3.7266,3.7237,3.724,3.7241,3.7241,3.7223,3.7223,3.7169,3.7161,3.7211,3.721,3.721,0,3.7391,3.7378,3.7369,3.736,3.7354,3.734,3.7331,3.7331,3.7321,3.7308,3.7296,3.7279,3.7265,3.7235,3.7228,3.7211,3.7211,3.7193,3.7208,3.7208,3.7208,3.7208,3.7205,3.7189,3.7189,3.7188,3.7188,0,3.7352,3.7352,3.734,3.7326,3.7316,3.7305,3.7295,3.7287,3.7286,3.7274,3.7256,3.7246,3.7224,3.7206,3.7189,3.7181,3.7183,3.7184,3.7178,3.7176,3.7177,3.7174,3.7231,3.7184,3.7185,3.7185,3.7185,3.7185,3.7322,3.731,3.7301,3.7287,3.728,3.727,3.7257,3.7253,3.7239,3.7222,3.7223,3.7203,3.7191,3.7168,3.716,3.7143,3.7148,3.7141,3.7138,3.7136,3.7133,3.7182,3.714,3.714,3.714,3.714,3.714,0,3.7281,3.7276,3.7263,3.7249,3.7237,3.7243,3.7232,3.7221,3.7204,3.7193,3.718,3.7159,3.7141,3.7133,3.7115,3.7102,3.7103,3.7097,3.7097,3.7095,3.7131,3.7136,3.7097,3.7097,3.7097,3.7097,3.7097,3.7097,3.7257,3.7236,3.7235,3.721,3.7205,3.7186,3.7179,3.717,3.7161,3.7138,3.7124,3.7119,3.7109,3.709,3.7073,3.7071,3.7063,3.7057,3.7055,3.7088,3.7092,3.7096,3.7101,3.7056,3.7056,3.702,3.7019,3.7019]}]]